World > North America > United States > New York

Hourly South Plymouth, NY Regional Weather

Feedback E-mail the Weather

Latest News

South Plymouth, NY Weather Maps

°F °C°F °C
South Plymouth Weather Map
UTC Time: 5/21/2022, 12:10
Your Time:

South Plymouth, NY Regional Weather

Expires:202205211200;;323918
ASUS41 KBGM 211110
RWRBGM

REGIONAL WEATHER ROUNDUP
NATIONAL WEATHER SERVICE BINGHAMTON NY
700 AM EDT SAT MAY 21 2022

Note: "fair" indicates few or no clouds below 12,000 feet with no
significant weather and/or obstructions to visibility.

* = Station(s) that does not report precipitation, such as rain, 
snow, etc, also no thunder or fog.


NYZ009-015>018-022>025-036-037-044>046-055>057-062-211200
...Central New York...
  
CITY           SKY/WX    TMP DP  RH WIND       PRES   REMARKS
Binghamton     SUNNY     66  63  90 CALM      29.98R                  
Cortland       FAIR      61  61 100 CALM      29.97R                  
Dansville      SUNNY     69  64  84 S6        29.91R                  
Elmira         MOSUNNY   60  59  96 CALM      29.96R                  
Endicott       FAIR      61  61 100 CALM      29.96R                  
Ithaca         SUNNY     72  65  78 S9        29.96R                  
Hamilton       FAIR     N/A N/A N/A SE3       29.96                   
Monticello     FOG       62  62 100 CALM      30.02R VSB 1/4          
Norwich        FAIR      61  61 100 S3        30.00R                  
Oneonta        FAIR      66  64  94 SW7       29.99R                  
Penn Yan       SUNNY     69  62  78 SW8       29.93R                  
Rome           SUNNY     68  63  84 E9        29.91R                  
Seneca Falls   FAIR      70  63  78 S9        29.91R                  
Sidney         FAIR      63  63 100 CALM      29.98R FOG              
Skaneateles    FAIR      73  66  78 SW8       29.92R                  
Syracuse       MOSUNNY   73  63  70 SW10      29.88R                  
$$
 

SKY/WX - Weather  TMP - Temperature  DP - Dew Point  RH - Humidity
WIND - Wind Direction/Speed PRES - Barometric Pressure VSB - Visibility
WCI - Wind Chill Index E13G22 Wind - East Wind 13 mph/Gusts of 22 mph

Trending Headlines

South Plymouth Radar Loop



South Plymouth Quick Facts


National Two Day Weather Forecast


E-mail the South Plymouth Weather Forecast

Voice your opinion or tell us about page issues...